Location: Camerons Lookout
(40.9833°S, 175.9333°E)
Time: 01:25:46
(UTC+00:00)

USA 306 - Pass Details

Date: 14 January 2026
Orbit: 496 x 519 km, 54.0° (Epoch: 15 February)

Event Time Altitude Azimuth Distance (km) Brightness Sun altitude
Rises 08:34:11 0° 235° (SW) 2,447 8.7 -7.9°
Reaches altitude 10° 08:36:17 10° 241° (WSW) 1,652 6.9 -8.2°
Maximum altitude 08:40:01 47° 314° (NW) 680 3.3 -8.8°
Enters shadow 08:43:49 11° 28° (NNE) 1,679 4.7 -9.3°
